SCP
0 0 0 0 0 0 0 0 0 0 0 0 0 0 0 0 0 0 0 0 0 0 0 0 0 0 0 0 0 0 0 0 0 0 0 0 0 0 0 0 0 0 0
0 0 0 0 0 0 0 0 0 0 0 0 0 0 0 0 0 0 0 0 0 0 0 0 0 0 0 0 0 0 0 0 0 0 0 0 0 0 0 0 0 0 0
0 0 0 0 0 0 0 0 0 0 0 0 0 0 0 0 0 0 0 0 0 0 0 0 0 0 0 0 0 0 0 0 0 0 0 0 0 0 0 0 0 0 0
0 0 0 0 0 0 0 0 0 0 0 0 0 0 0 0 0 0 0 0 0 0 0 0 0 0 0 0 0 0 0 0 0 0 0 0 0 0 0 0 0 0 0
0 0 0 0 0 0 0 0 0 0 0 0 0 0 0 0 0 0 0 0 0 0 0 0 0 0 0 0 0 0 0 0 0 0 0 0 0 0 0 0 0 0 0
0 0 0 0 0 0 0 0 0 0 0 0 0 0 0 0 0 0 0 0 0 0 0 0 0 0 0 0 0 0 0 0 0 0 0 0 0 0 0 0 0 0 0
0 0 0 0 0 0 0 0 0 0 0 0 0 0 0 0 0 0 0 0 0 0 0 0 0 0 0 0 0 0 0 0 0 0 0 0 0 0 0 0 0 0 0
0 0 0 0 0 0 0 0 0 0 0 0 0 0 0 0 0 0 0 0 0 0 0 0 0 0 0 0 0 0 0 0 0 0 0 0 0 0 0 0 0 0 0
0 0 0 0 0 0 0 0 0 0 0 0 0 0 0 0 0 0 0 0 0 0 0 0 0 0 0 0 0 0 0 0 0 0 0 0 0 0 0 0 0 0 0
0 0 0 0 0 0 0 0 0 0 0 0 0 0 0 0 0 0 0 0 0 0 0 0 0 0 0 0 0 0 0 0 0 0 0 0 0 0 0 0 0 0 0
0 0 0 0 0 0 0 0 0 0 0 0 0 0 0 0 0 0 0 0 0 0 0 0 0 0 0 0 0 0 0 0 0 0 0 0 0 0 0 0 0 0 0
0 0 0 0 0 0 0 0 0 0 0 0 0 0 0 0 0 0 0 0 0 0 0 0 0 0 0 0 0 0 0 0 0 0 0 0 0 0 0 0 0 0 0
0 0 0 0 0 0 0 0 0 0 0 0 0 0 0 0 0 0 0 0 0 0 0 0 0 0 0 0 0 0 0 0 0 0 0 0 0 0 0 0 0 0 0
0 0 0 0 0 0 0 0 0 0 1 1 1 0 0 0 0 0 0 0 0 0 0 0 0 0 0 0 0 0 0 0 0 0 0 0 0 0 0 0 0 0 0
0 0 0 0 0 0 0 0 0 1 1 1 1 1 0 0 0 0 0 0 0 0 0 0 0 0 0 0 0 0 0 0 0 0 0 0 0 0 0 0 0 0 0
0 0 0 0 0 0 0 0 0 1 1 1 1 1 0 0 0 0 0 0 0 0 0 0 0 0 0 0 0 0 0 0 0 0 0 0 0 0 0 0 0 0 0
0 0 0 0 0 0 0 0 0 1 1 1 1 0 0 0 0 0 0 0 0 0 0 0 0 0 0 0 0 0 0 0 0 0 0 0 0 0 0 0 0 0 0
0 0 0 0 0 0 0 0 0 1 1 1 1 0 0 0 0 0 0 0 0 0 0 0 0 0 0 0 0 0 0 0 0 0 0 0 0 0 0 0 0 0 0
0 0 0 0 0 0 0 0 0 1 1 1 1 0 0 0 0 0 0 0 0 0 0 0 0 0 0 0 0 0 0 0 0 0 0 0 0 0 0 0 0 0 0
0 0 0 0 0 0 0 0 0 1 1 1 0 0 0 0 0 1 0 0 0 0 0 0 0 0 0 0 0 0 0 0 0 0 0 0 0 0 0 0 0 0 0
0 0 0 0 0 0 0 0 0 0 0 0 0 0 0 1 1 1 1 1 1 1 0 0 0 0 0 0 0 0 0 0 0 0 0 0 0 0 0 0 0 0 0
0 0 0 0 0 0 0 0 0 0 0 0 0 0 1 1 1 1 1 1 1 1 1 1 0 0 0 0 0 0 0 0 0 0 0 0 0 0 0 0 0 0 0
0 0 0 0 0 0 0 0 0 0 0 0 0 0 1 1 1 1 1 1 1 1 1 1 1 0 0 0 0 0 0 0 0 0 0 0 0 0 0 0 0 0 0
0 0 0 0 0 0 0 0 0 0 0 0 0 0 1 1 1 1 1 1 1 1 1 1 1 1 0 0 0 0 0 0 0 0 0 0 0 0 0 0 0 0 0
0 0 0 0 0 0 0 0 0 0 0 0 0 1 1 1 1 1 1 0 0 0 1 1 1 1 1 0 0 0 0 0 0 0 0 0 0 0 0 0 0 0 0
0 0 0 0 0 0 0 0 0 0 0 0 0 1 1 1 1 1 0 0 0 0 0 0 0 1 0 0 0 0 0 0 0 0 0 0 0 0 0 0 0 0 0
Wind_Speed
6 6 6 6 5 5 5 5 4 4 3 2 2 2 1 0 1 0 1 1 2 2 3 2 2 2 3 2 3 3 3 2 2 2 3 3 3 2 2 1 1 2 2
5 6 6 6 6 6 5 5 5 5 4 3 2 2 2 1 1 1 1 1 1 2 2 2 2 2 2 3 3 3 2 1 1 2 2 2 2 3 2 2 1 1 1
10 9 8 8 7 7 7 6 6 5 4 4 3 3 2 2 1 1 1 1 1 2 2 3 2 2 2 2 2 2 3 2 1 1 2 2 0 1 2 2 2 2 1
10 10 10 9 9 8 6 5 6 5 4 5 4 5 3 2 2 1 0 1 1 1 2 2 3 2 2 2 1 2 2 2 1 1 1 1 2 1 1 1 2 2 2
12 12 12 11 9 8 7 6 5 4 4 4 5 5 3 2 1 1 1 1 1 1 2 3 3 2 2 2 1 2 1 1 1 1 1 2 1 1 1 0 1 2 2
12 12 10 8 8 7 7 6 6 5 5 5 5 5 5 4 3 2 2 1 1 1 1 2 2 2 2 2 2 2 2 1 2 1 1 1 1 1 1 1 0 1 1
12 12 11 11 10 9 9 8 8 6 6 6 6 6 6 5 5 4 3 2 1 1 1 2 2 2 2 2 2 2 2 2 2 1 1 1 1 1 2 2 1 0 1
11 13 13 13 12 11 10 9 9 7 7 7 6 5 5 4 3 4 3 3 2 2 2 2 2 2 2 2 2 1 1 2 2 1 1 1 0 1 2 2 2 1 1
12 12 12 12 12 12 11 10 10 8 7 7 6 5 5 5 5 4 3 3 2 2 2 3 2 2 2 2 2 1 1 2 1 1 1 1 0 1 1 2 2 2 1
9 10 10 11 10 10 10 9 9 9 7 7 7 6 5 5 5 4 4 4 3 3 3 3 3 2 2 2 2 1 1 1 1 1 1 1 0 1 1 2 1 1 2
9 10 9 9 9 8 9 9 9 8 7 7 7 6 6 5 5 4 5 4 4 4 4 4 3 3 2 2 2 2 1 1 1 0 1 1 1 1 1 1 1 1 2
6 7 8 9 9 9 9 9 8 8 7 7 7 7 6 6 5 5 5 4 4 4 4 4 3 3 2 2 3 2 2 2 2 1 1 1 1 1 1 1 1 1 2
5 5 6 8 9 9 9 9 9 8 7 7 7 6 6 6 6 5 5 4 4 4 3 4 4 3 3 3 3 3 2 2 2 2 2 2 1 1 1 2 2 1 1
4 5 6 6 7 7 8 8 8 8 8 8 7 7 7 7 6 5 5 5 4 4 4 4 4 4 3 3 3 3 3 2 2 2 2 2 2 3 2 2 2 2 1
5 6 7 7 7 7 7 7 7 7 8 8 8 7 6 6 5 5 5 5 5 5 4 4 3 3 3 3 4 3 3 2 2 1 2 3 2 3 3 2 3 2 2
6 6 6 7 7 8 8 7 7 7 7 8 7 6 6 6 6 6 5 5 5 4 4 4 4 4 3 4 5 4 3 2 2 2 2 2 2 3 3 3 3 4 3
5 7 7 8 8 8 8 8 7 7 7 7 6 6 6 6 6 6 5 5 5 4 4 4 4 4 4 4 5 5 3 3 3 3 2 2 2 2 2 2 2 3 4
4 5 6 6 6 6 6 6 7 7 7 7 6 6 6 6 6 6 6 5 4 4 4 4 4 4 4 5 5 5 3 3 3 3 3 3 3 2 2 2 1 2 3
3 4 5 5 6 6 7 7 7 7 7 7 7 7 7 7 6 6 6 5 4 4 4 4 4 4 4 5 5 5 3 2 3 3 3 3 3 4 3 2 2 3 3
1 2 3 4 5 5 6 8 7 7 7 7 7 6 7 7 7 7 6 4 5 5 4 4 4 5 4 5 5 5 3 3 3 2 3 3 4 4 4 4 3 3 3
0 2 3 3 4 5 7 7 7 8 7 6 5 5 6 6 6 5 5 5 5 4 4 4 4 4 4 5 6 6 4 4 3 3 3 3 4 4 4 4 4 5 3
0 2 3 2 2 4 7 7 7 6 5 5 5 5 5 5 5 5 5 5 5 5 4 3 3 3 3 4 5 7 7 5 4 4 3 3 4 4 4 4 4 4 2
0 1 2 2 2 3 6 7 5 5 5 5 5 5 5 4 5 6 6 5 5 4 4 4 3 3 2 3 5 6 7 6 4 3 4 3 3 3 3 3 3 2 2
0 1 2 2 2 2 4 4 4 5 6 6 5 5 5 5 5 4 5 5 5 5 5 4 4 3 3 3 2 3 3 4 3 2 2 2 1 1 1 1 2 2 2
0 1 2 2 2 2 2 3 4 5 5 5 5 5 5 5 5 4 4 5 5 6 6 5 5 5 5 5 5 4 3 3 3 3 1 1 1 1 1 1 2 2 2
0 0 1 1 2 2 2 2 3 5 5 5 4 4 4 4 4 4 2 3 3 5 6 6 5 4 5 5 5 5 5 5 6 4 3 3 3 3 3 3 3 3 3
Wind_Direction
201 178 175 172 165 164 163 166 164 161 146 135 135 129 143 40 39 60 109 112 108 106 104 97 90 92 96 97 102 103 92 72 71 78 59 43 48 52 49 58 57 39 27
187 181 177 175 177 179 177 171 173 167 167 162 145 138 134 130 109 38 58 96 116 122 126 120 113 104 100 86 88 102 104 74 62 88 82 41 20 25 36 40 56 36 26
194 190 187 187 183 188 189 184 178 174 171 154 118 97 74 58 60 49 38 49 115 127 125 130 122 114 112 115 112 121 127 126 62 73 121 124 160 351 19 27 33 21 8
193 190 189 190 192 195 189 180 172 173 169 157 149 147 152 163 191 173 139 57 88 127 132 132 130 128 117 122 146 129 125 132 129 63 64 103 146 139 10 12 19 16 8
192 192 194 193 191 186 181 176 168 170 169 167 164 159 163 174 151 118 103 78 61 112 134 136 133 131 125 128 119 107 117 130 136 127 101 85 67 87 140 308 351 5 4
194 192 189 182 182 177 175 170 170 178 175 173 170 170 170 165 150 147 142 130 97 77 108 129 133 135 132 137 141 130 121 122 114 102 104 131 138 154 143 161 312 336 345
188 186 182 183 183 180 179 175 175 185 180 177 181 183 182 175 174 173 168 157 141 138 165 139 138 140 147 143 136 126 124 127 124 137 156 145 161 149 144 138 154 320 329
188 189 188 187 185 184 183 179 180 186 181 181 188 187 183 181 182 177 168 173 179 182 168 150 141 138 141 138 132 129 148 135 141 149 163 153 171 149 152 155 152 111 359
189 190 188 186 184 182 183 183 182 187 187 185 180 182 184 185 182 173 170 175 180 175 160 151 145 146 142 144 139 127 144 137 149 163 167 174 194 158 176 170 168 157 178
187 189 188 184 182 180 178 179 182 189 186 180 181 184 186 188 180 167 175 178 177 169 153 152 152 153 150 149 143 143 163 144 166 170 158 177 200 173 172 172 169 166 169
186 184 183 180 172 168 171 178 181 180 180 181 179 177 179 179 173 176 182 178 171 169 166 163 159 161 170 168 157 167 166 169 208 215 167 202 187 183 180 164 163 162 161
181 178 175 168 168 173 177 181 182 184 184 181 178 177 173 171 176 186 186 175 172 176 179 166 160 171 181 179 172 182 181 187 200 209 183 234 212 204 199 175 188 193 192
162 161 161 166 174 178 179 181 184 185 179 174 176 175 175 178 185 188 182 175 173 173 175 169 175 184 190 191 190 185 185 188 202 204 207 230 207 226 217 197 204 209 202
165 164 168 173 176 177 180 182 185 179 174 172 176 181 185 186 186 182 178 179 178 176 181 182 185 189 192 194 192 187 185 186 196 206 218 225 215 222 221 214 216 208 208
176 180 179 178 175 174 177 177 180 176 174 172 179 187 186 181 177 177 179 177 179 185 182 179 180 187 188 195 188 187 186 185 194 220 235 236 226 221 217 218 210 200 210
191 185 180 179 181 182 181 176 177 173 167 175 183 180 174 177 182 182 179 176 180 182 178 185 186 195 206 192 187 185 190 192 202 229 253 253 247 246 235 227 211 196 197
193 187 185 186 189 189 184 181 178 165 167 173 175 175 174 180 185 181 172 180 185 182 186 194 194 206 214 199 196 194 193 200 213 222 241 260 270 241 241 238 225 221 225
200 196 191 189 188 179 175 169 161 163 170 174 176 175 177 181 178 175 181 185 179 183 195 200 203 209 217 201 201 200 197 204 224 227 226 233 258 253 223 225 243 252 252
221 203 195 188 177 173 167 156 158 161 169 179 185 183 181 181 178 181 189 186 179 188 196 197 199 206 220 207 202 193 194 210 235 239 230 224 237 249 218 207 240 267 277
239 168 163 166 172 172 157 155 163 166 183 189 189 183 180 181 183 187 187 181 181 192 191 202 206 209 217 211 204 190 195 213 234 247 243 233 234 243 216 208 221 250 265
344 131 134 159 180 164 153 165 172 188 195 185 177 175 179 182 180 178 181 177 181 184 192 205 214 213 217 214 208 195 197 209 218 238 248 247 239 237 223 215 224 242 251
95 130 137 154 156 157 158 173 195 195 174 168 174 181 181 182 176 172 179 181 181 186 197 201 221 226 220 216 215 207 207 204 210 234 247 251 234 225 222 220 232 240 230
145 131 147 151 156 165 168 182 198 172 166 170 179 181 179 178 172 175 178 181 183 190 200 202 216 235 235 224 220 214 213 209 212 232 241 240 223 218 226 236 236 223 209
143 141 141 161 196 187 182 190 182 169 167 176 180 178 177 177 174 179 184 189 192 194 199 203 213 224 227 223 212 212 213 210 212 223 226 211 196 206 234 246 235 223 220
56 145 171 188 216 205 193 188 172 162 168 177 180 179 184 181 182 190 195 200 206 202 199 204 202 205 222 227 212 202 203 199 200 181 173 184 203 226 239 244 247 242 235
353 179 194 193 219 196 202 202 182 171 172 178 183 183 179 182 183 184 194 209 210 212 214 211 204 213 212 204 207 205 202 198 183 169 195 209 216 226 232 237 244 240 240